Location: Portage (MI)
(42.2012°N, 85.5800°W)
Time: 10:03:43
(UTC-04:00)

Envisat - Visible Passes

Search period start: 25 April 2018 00:00
Search period end: 05 May 2018 00:00
Orbit: 764 x 766 km, 98.2° (Epoch: 25 April)

Date Brightness Start Highest point End Pass type
(mag) Time Alt. Az. Time Alt. Az. Time Alt. Az.
25 Apr 3.0 20:58:10 10° SSE 21:03:14 84° ENE 21:08:21 10° NNW visible
25 Apr 5.9 22:41:24 10° WSW 22:42:53 11° W 22:44:22 10° WNW visible
26 Apr 5.1 22:01:36 10° SSW 22:05:46 25° W 22:09:56 10° NW visible
27 Apr 3.7 21:23:52 10° S 21:28:50 56° W 21:33:50 10° NNW visible
28 Apr 5.7 22:28:52 10° WSW 22:31:36 14° W 22:34:21 10° WNW visible
29 Apr 4.7 21:50:01 10° SSW 21:54:32 32° W 21:59:04 10° NNW visible
30 Apr 3.3 21:12:37 10° S 21:17:40 71° WSW 21:22:45 10° NNW visible
01 May 5.5 22:16:51 10° SW 22:20:20 18° W 22:23:49 10° NW visible
02 May 4.3 21:38:34 10° SSW 21:43:19 40° W 21:48:06 10° NNW visible
04 May 5.2 22:05:04 10° SW 22:09:04 23° W 22:13:06 10° NW visible
